TimeEST,TemperatureF,Dew PointF,Humidity,Sea Level PressureIn,VisibilityMPH,Wind Direction,Wind SpeedMPH,Gust SpeedMPH,PrecipitationIn,Events,Conditions,WindDirDegrees,DateUTC
12:53 AM,64.9,62.1,90,30.12,10.0,ENE,8.1,-,N/A,,Clear,70,2013-12-26 05:53:00
1:53 AM,64.9,62.1,90,30.11,10.0,ENE,8.1,-,N/A,,Clear,60,2013-12-26 06:53:00
2:53 AM,64.9,61.0,87,30.10,10.0,NE,8.1,-,N/A,,Partly Cloudy,40,2013-12-26 07:53:00
3:53 AM,66.0,62.1,87,30.10,10.0,NE,6.9,-,N/A,,Overcast,50,2013-12-26 08:53:00
4:53 AM,66.9,62.1,84,30.09,10.0,ENE,6.9,-,N/A,,Overcast,60,2013-12-26 09:53:00
5:53 AM,66.0,62.1,87,30.10,10.0,ENE,8.1,-,N/A,,Overcast,70,2013-12-26 10:53:00
6:53 AM,66.0,62.1,87,30.12,10.0,NNE,6.9,-,N/A,,Overcast,20,2013-12-26 11:53:00
7:53 AM,66.0,63.0,90,30.14,7.0,NE,9.2,-,N/A,,Overcast,40,2013-12-26 12:53:00
8:53 AM,68.0,63.0,84,30.16,10.0,NE,8.1,-,N/A,,Mostly Cloudy,50,2013-12-26 13:53:00
9:53 AM,71.1,64.0,78,30.17,10.0,ENE,9.2,-,N/A,,Overcast,60,2013-12-26 14:53:00
10:53 AM,72.0,64.9,78,30.17,10.0,ENE,9.2,-,N/A,,Overcast,60,2013-12-26 15:53:00
11:53 AM,73.0,66.0,79,30.15,10.0,ENE,9.2,-,N/A,,Overcast,70,2013-12-26 16:53:00
12:53 PM,78.1,68.0,71,30.10,10.0,ENE,10.4,-,N/A,,Clear,70,2013-12-26 17:53:00
1:53 PM,79.0,66.9,66,30.08,10.0,East,10.4,-,N/A,,Scattered Clouds,90,2013-12-26 18:53:00
2:53 PM,80.1,66.9,64,30.05,10.0,East,9.2,-,N/A,,Scattered Clouds,100,2013-12-26 19:53:00
3:53 PM,79.0,64.9,62,30.05,10.0,ENE,11.5,-,N/A,,Mostly Cloudy,70,2013-12-26 20:53:00
4:53 PM,79.0,66.9,66,30.06,10.0,ENE,9.2,-,N/A,,Mostly Cloudy,70,2013-12-26 21:53:00
5:53 PM,75.9,66.9,74,30.08,10.0,ENE,9.2,-,N/A,,Clear,60,2013-12-26 22:53:00
6:53 PM,73.0,68.0,84,30.09,10.0,ENE,6.9,-,N/A,,Clear,70,2013-12-26 23:53:00
7:53 PM,72.0,66.9,84,30.10,10.0,NE,5.8,-,N/A,,Clear,50,2013-12-27 00:53:00
8:53 PM,70.0,66.9,90,30.12,10.0,ENE,5.8,-,N/A,,Clear,60,2013-12-27 01:53:00
9:53 PM,69.1,66.9,93,30.14,10.0,NE,4.6,-,N/A,,Clear,50,2013-12-27 02:53:00
10:53 PM,70.0,68.0,93,30.15,10.0,NE,4.6,-,N/A,,Overcast,40,2013-12-27 03:53:00
11:53 PM,70.0,66.9,90,30.14,10.0,NE,9.2,-,N/A,,Overcast,50,2013-12-27 04:53:00